| time (UTC) | temp F | wind direction | speed MPH | gust MPH | rain 1hr in | rain 24hr in | rain mn in | humidity % | barometer mb |
| 20260510161530 | 60 | 61 | 2.0 | 4.0 | 0.00 | 0.00 | 0.00 | 64 | 1018.9 |
| 20260510160028 | 59 | 74 | 2.0 | 4.0 | 0.00 | 0.00 | 0.00 | 63 | 1018.9 |
| 20260510154532 | 57 | 91 | 0.0 | 2.0 | 0.00 | 0.00 | 0.00 | 63 | 1018.7 |
| 20260510153041 | 57 | 69 | 1.0 | 3.0 | 0.00 | 0.00 | 0.00 | 62 | 1018.7 |
| 20260510151530 | 56 | 67 | 0.0 | 3.0 | 0.00 | 0.00 | 0.00 | 61 | 1018.5 |
| 20260510150030 | 56 | 47 | 1.0 | 3.0 | 0.00 | 0.00 | 0.00 | 63 | 1018.6 |
| 20260510144530 | 55 | 353 | 0.0 | 3.0 | 0.00 | 0.00 | 0.00 | 66 | 1018.4 |
| 20260510143031 | 55 | 315 | 0.0 | 0.0 | 0.00 | 0.00 | 0.00 | 65 | 1018.4 |
| 20260510141531 | 54 | 315 | 0.0 | 1.0 | 0.00 | 0.00 | 0.00 | 68 | 1018.3 |
| 20260510140031 | 52 | 305 | 1.0 | 3.0 | 0.00 | 0.00 | 0.00 | 69 | 1018.2 |
| 20260510134533 | 52 | 292 | 0.0 | 3.0 | 0.00 | 0.00 | 0.00 | 69 | 1018.3 |
| 20260510133146 | 51 | 311 | 2.0 | 4.0 | 0.00 | 0.00 | 0.00 | 70 | 1018.2 |
| 20260510131529 | 50 | 303 | 3.0 | 4.0 | 0.00 | 0.00 | 0.00 | 70 | 1018.2 |
| 20260510130033 | 50 | 294 | 2.0 | 3.0 | 0.00 | 0.00 | 0.00 | 69 | 1018.3 |
| 20260510124531 | 50 | 297 | 2.0 | 5.0 | 0.00 | 0.00 | 0.00 | 69 | 1018.3 |
| 20260510123118 | 50 | 294 | 3.0 | 6.0 | 0.00 | 0.00 | 0.00 | 69 | 1018.3 |
| 20260510121530 | 50 | 300 | 3.0 | 6.0 | 0.00 | 0.00 | 0.00 | 68 | 1018.4 |
| 20260510120029 | 50 | 316 | 3.0 | 4.0 | 0.00 | 0.00 | 0.00 | 67 | 1018.3 |
| 20260510114607 | 50 | 301 | 2.0 | 4.0 | 0.00 | 0.00 | 0.00 | 67 | 1018.2 |
| 20260510113030 | 50 | 306 | 3.0 | 5.0 | 0.00 | 0.00 | 0.00 | 67 | 1018.2 |
| 20260510104533 | 51 | 282 | 3.0 | 4.0 | 0.00 | 0.00 | 0.00 | 62 | 1018.2 |
| 20260510103032 | 51 | 292 | 2.0 | 4.0 | 0.00 | 0.00 | 0.00 | 61 | 1018.3 |
| 20260510101606 | 51 | 315 | 2.0 | 4.0 | 0.00 | 0.00 | 0.00 | 59 | 1018.2 |
| 20260510093029 | 53 | 293 | 3.0 | 4.0 | 0.00 | 0.00 | 0.00 | 54 | 1018.2 |
| 20260510091531 | 53 | 283 | 3.0 | 5.0 | 0.00 | 0.00 | 0.00 | 54 | 1018.2 |
| 20260510090030 | 53 | 279 | 3.0 | 5.0 | 0.00 | 0.00 | 0.00 | 53 | 1018.4 |
| 20260510084534 | 55 | 299 | 3.0 | 5.0 | 0.00 | 0.00 | 0.00 | 52 | 1018.5 |
| 20260510083030 | 55 | 283 | 5.0 | 8.0 | 0.00 | 0.00 | 0.00 | 51 | 1018.6 |
| 20260510081604 | 55 | 273 | 7.0 | 9.0 | 0.00 | 0.00 | 0.00 | 53 | 1018.7 |
| 20260510080029 | 55 | 270 | 6.0 | 8.0 | 0.00 | 0.00 | 0.00 | 54 | 1018.7 |
| 20260510074532 | 55 | 269 | 4.0 | 6.0 | 0.00 | 0.00 | 0.00 | 54 | 1018.9 |
| 20260510073030 | 56 | 270 | 3.0 | 4.0 | 0.00 | 0.00 | 0.00 | 53 | 1018.9 |
| 20260510071532 | 56 | 273 | 2.0 | 4.0 | 0.00 | 0.00 | 0.00 | 52 | 1018.9 |
| 20260510064533 | 56 | 308 | 2.0 | 4.0 | 0.00 | 0.00 | 0.00 | 50 | 1018.9 |
| 20260510063031 | 57 | 305 | 4.0 | 6.0 | 0.00 | 0.00 | 0.00 | 51 | 1018.7 |
| 20260510061529 | 57 | 304 | 5.0 | 7.0 | 0.00 | 0.00 | 0.00 | 50 | 1018.7 |
| 20260510060032 | 57 | 301 | 5.0 | 7.0 | 0.00 | 0.00 | 0.00 | 50 | 1018.7 |
| 20260510054608 | 58 | 298 | 6.0 | 8.0 | 0.00 | 0.00 | 0.00 | 50 | 1018.8 |
| 20260510053031 | 59 | 303 | 5.0 | 7.0 | 0.00 | 0.00 | 0.00 | 49 | 1018.7 |
| 20260510051530 | 59 | 307 | 5.0 | 6.0 | 0.00 | 0.00 | 0.00 | 49 | 1018.7 |
| 20260510050030 | 59 | 305 | 5.0 | 6.0 | 0.00 | 0.00 | 0.00 | 48 | 1018.5 |
| 20260510044529 | 60 | 299 | 4.0 | 6.0 | 0.00 | 0.00 | 0.00 | 47 | 1018.4 |
| 20260510041530 | 61 | 272 | 5.0 | 6.0 | 0.00 | 0.00 | 0.00 | 47 | 1018.2 |
| 20260510040027 | 62 | 284 | 4.0 | 6.0 | 0.00 | 0.00 | 0.00 | 45 | 1018.1 |
| 20260510034541 | 64 | 291 | 4.0 | 5.0 | 0.00 | 0.00 | 0.00 | 44 | 1018.1 |
| 20260510034531 | 65 | 292 | 4.0 | 5.0 | 0.00 | 0.00 | 0.00 | 43 | 1018.0 |
| 20260510031528 | 66 | 294 | 3.0 | 4.0 | 0.00 | 0.00 | 0.00 | 42 | 1018.0 |
| 20260510030107 | 67 | 292 | 3.0 | 4.0 | 0.00 | 0.00 | 0.00 | 41 | 1018.0 |
| 20260510024604 | 69 | 295 | 3.0 | 4.0 | 0.00 | 0.00 | 0.00 | 40 | 1018.0 |
| 20260510023029 | 70 | 296 | 3.0 | 4.0 | 0.00 | 0.00 | 0.00 | 39 | 1018.0 |
| 20260510021643 | 71 | 292 | 3.0 | 4.0 | 0.00 | 0.00 | 0.00 | 39 | 1018.0 |
| 20260510020033 | 73 | 313 | 2.0 | 4.0 | 0.00 | 0.00 | 0.00 | 37 | 1018.1 |
| 20260510014531 | 74 | 341 | 1.0 | 2.0 | 0.00 | 0.00 | 0.00 | 35 | 1018.3 |
| 20260510013029 | 74 | 5 | 0.0 | 2.0 | 0.00 | 0.00 | 0.00 | 33 | 1018.4 |
| 20260510011530 | 74 | 359 | 1.0 | 4.0 | 0.00 | 0.00 | 0.00 | 31 | 1018.5 |
| 20260510004602 | 76 | 9 | 2.0 | 5.0 | 0.00 | 0.00 | 0.00 | 28 | 1018.8 |
| 20260510003032 | 76 | 347 | 2.0 | 5.0 | 0.00 | 0.00 | 0.00 | 28 | 1018.8 |
| 20260510001535 | 77 | 353 | 2.0 | 6.0 | 0.00 | 0.00 | 0.00 | 29 | 1018.9 |
| 20260510000032 | 77 | 41 | 2.0 | 6.0 | 0.00 | 0.00 | 0.00 | 29 | 1018.9 |
| 20260509234530 | 78 | 89 | 3.0 | 7.0 | 0.00 | 0.00 | 0.00 | 27 | 1019.2 |
| 20260509233030 | 77 | 42 | 3.0 | 7.0 | 0.00 | 0.00 | 0.00 | 28 | 1019.3 |
| 20260509230030 | 78 | 55 | 4.0 | 9.0 | 0.00 | 0.00 | 0.00 | 27 | 1019.8 |
| 20260509224533 | 76 | 32 | 3.0 | 8.0 | 0.00 | 0.00 | 0.00 | 27 | 1020.0 |
| 20260509223027 | 76 | 34 | 5.0 | 11.0 | 0.00 | 0.00 | 0.00 | 29 | 1020.2 |
| 20260509221531 | 76 | 49 | 4.0 | 8.0 | 0.00 | 0.00 | 0.00 | 29 | 1020.5 |
| 20260509220034 | 75 | 51 | 3.0 | 8.0 | 0.00 | 0.00 | 0.00 | 30 | 1020.6 |
| 20260509214529 | 74 | 24 | 4.0 | 9.0 | 0.00 | 0.00 | 0.00 | 31 | 1020.8 |
| 20260509211531 | 74 | 46 | 6.0 | 12.0 | 0.00 | 0.00 | 0.00 | 35 | 1021.1 |
| 20260509210030 | 74 | 26 | 5.0 | 11.0 | 0.00 | 0.00 | 0.00 | 36 | 1021.3 |
| 20260509204611 | 72 | 32 | 4.0 | 10.0 | 0.00 | 0.00 | 0.00 | 38 | 1021.5 |
| 20260509204604 | 71 | 25 | 5.0 | 12.0 | 0.00 | 0.00 | 0.00 | 39 | 1021.6 |
| 20260509201531 | 70 | 27 | 5.0 | 10.0 | 0.00 | 0.00 | 0.00 | 40 | 1021.8 |
| 20260509200031 | 70 | 13 | 4.0 | 10.0 | 0.00 | 0.00 | 0.00 | 40 | 1022.1 |
| 20260509193030 | 68 | 39 | 2.0 | 9.0 | 0.00 | 0.00 | 0.00 | 47 | 1022.4 |
| 20260509191529 | 67 | 48 | 3.0 | 9.0 | 0.00 | 0.00 | 0.00 | 47 | 1022.4 |
| 20260509190030 | 66 | 32 | 3.0 | 7.0 | 0.00 | 0.00 | 0.00 | 43 | 1022.6 |
| 20260509184527 | 65 | 68 | 3.0 | 9.0 | 0.00 | 0.00 | 0.00 | 48 | 1022.7 |
| 20260509183031 | 64 | 45 | 3.0 | 8.0 | 0.00 | 0.00 | 0.00 | 52 | 1022.8 |
| 20260509181531 | 64 | 75 | 3.0 | 7.0 | 0.00 | 0.00 | 0.00 | 54 | 1023.0 |
| 20260509180028 | 63 | 60 | 3.0 | 8.0 | 0.00 | 0.00 | 0.00 | 59 | 1022.9 |
| 20260509174529 | 61 | 76 | 3.0 | 7.0 | 0.00 | 0.00 | 0.00 | 64 | 1022.9 |
| 20260509173106 | 60 | 83 | 4.0 | 9.0 | 0.00 | 0.00 | 0.00 | 64 | 1022.9 |
| 20260509171608 | 60 | 83 | 3.0 | 9.0 | 0.00 | 0.00 | 0.00 | 65 | 1023.0 |
| 20260509170028 | 59 | 23 | 2.0 | 5.0 | 0.00 | 0.00 | 0.00 | 66 | 1023.2 |
| 20260509164532 | 58 | 60 | 2.0 | 5.0 | 0.00 | 0.00 | 0.00 | 67 | 1023.2 |